Weather in Fedotovskaya

Russia / Arkhangel'skaya Oblast'     61°24′19″N   46°16′03″E
temp.,
°C
wind,
m/s
gust,
m/s
humid.,
%
clouds,
%
prec.,
mm/h
press.,
hPa
HPBL,
m
12 april, mon
mon1200:00+3wsw514772 0.0 1031584
03:00+1wsw310833 0.0 1033315
06:000wsw310885 0.0 1035261
09:00+5wsw37735 0.0 1037433
12:00+8sw35525 0.0 1037927
15:00+9ssw365777 0.0 10371192
18:00+6s397590 0.0 1035291
21:00+5ssw4128444 0.0 1035401
13 april, tue
tue1300:00+5s4129061 0.0 1034337
03:00+3s31092100 0.0 1033251
06:00+4sse31288100 0.0 1031342
09:00+6s41285100 0.0 1029493
12:00+10ssw41081100 0.0 1027747
15:00+11ssw41082100 0.0 1026735
18:00+10ssw258897 0.0 1024147
21:00+8s2795100 0.0 1024161
14 april, wed
wed1400:00+8ssw3894100 0.0 1023203
03:00+7ssw289491 0.0 1023187
06:00+8sw2891100 0.0 1022261
09:00+12sw387890 0.5 1022454
12:00+16ssw41060100 0.1 1020852
15:00+17ssw511575 0.1 10191181
18:00+15ssw5136399 0.0 1018688
21:00+12sw51570100 0.0 1017583
15 april, thu
thu1500:00+10sw41473100 0.0 1017464
03:00+9w3884100 0.0 1017237
06:00+5n4888100 0.3 1020526
09:00+3nne3793100 0.5 1022521
12:00+6n3575100 0.1 1023896
15:00+7n2461100 0.1 10231240
18:00+7n366170 0.0 1023324
21:00+3n257893 0.0 1024112
16 april, fri
fri1600:00+1n22845 0.0 102416
03:000n11820 0.0 102512
06:00+1nw13738 0.0 1022124
09:00+5nnw35527 0.0 10221032
12:00+6nnw575179 0.1 10221604
15:00+6nnw585899 0.8 10231528
18:00+4nnw6116852 0.4 10241273
21:00+1nnw611655 0.4 10261073